CZ-6A DEB, 60758

Orbit data source: Space-Track

CZ-6A DEB, 60758 is space debris in LEO originally from a launch on Tue, 06 Aug 2024 UTC launched from the Taiyaun Space Center, China (TSC). Debris objects in space refer to the collection of defunct objects orbiting the Earth. Examples of debris include non-operational satellites, rocket bodies, and fragments generated from explosions, collisions, or faulty payload assembly.

Loading next visibility...
Identifier
60758, 2024-140EH
Orbit
LEO
Country
Flag of CNCN / PRC
Related business
Manufacturer
SAST
Mission
Spacecraft
Bus & Motor
Unknown
Mass
Unknown
Launch date (UTC)
2024-08-06 (1 year ago)
Launch vehicle
Unknown
Launch site
Taiyaun Space Center, China (TSC)
Object type
Payload
Rocket body
Debris
Shape & HBR
Unknown shape, 0.2 m
Radar Cross Section
Small (<0.1 m²)

Expand to show TLE details & history
Last TLE update: 1 day ago

TLE from 1 day ago
0 CZ-6A DEB
1 60758U 24140EH  25312.70206404  .00001210  00000-0  28504-3 0  9999
2 60758  89.0081 297.5615 0099423 300.5964  58.5465 14.50744294 65940
Epoch: 2025-11-08T16:50Z
TLE epoch observation values (Epoch: 2025-11-08T16:50:58.333Z)
Latitude
0.00006°
Longitude
-3.30944°
Altitude
689.981 km
Speed
7.53 km/s
True Right ascension
19h 50m 14s
True Declination
0° 00' 00"
Sunlit
Object was in daylight at epoch
Visualization orbit readout
Latitude
Unknown
Longitude
Unknown
Altitude
Unknown
Speed
Unknown
Apparent Right ascension
Unknown
Apparent Declination
Unknown
Sunlit
N/A
Visualization observer readout
Local Sidereal Time
19:55:55
Azimuth
Unknown
Elevation
Unknown
Doppler factor
Unknown
Orbital elements
Apogee altitude
790.698 km
Perigee altitude
649.552 km
Semi-major axis
7,098.262 km
Eccentricity
0.00994
Inclination
89.0081°
RAAN
297.5615°
Arg. of periapsis
300.5964°
True anomaly
59.52469°
Mean anomaly
58.5465°
Eccentric anomaly
59.03497°
Mean motion
3.62924 °/min
Orbital period
99.19 mins
BSTAR
0.00028504
Loading maneuver chart data...
Computing Atmospheric mass density...

Documentation

Showing up to 5 results
|